Time,TemperatureF,DewpointF,PressureIn,WindDirection,WindDirectionDegrees,WindSpeedMPH,WindSpeedGustMPH,Humidity,HourlyPrecipIn,Conditions,Clouds,dailyrainin,SoftwareType,DateUTC
2013-02-11 00:10:00,48.6,46.1,30.11,East,90,1.7,-999.0,91,-99.99,,,0.00,Acu-Link.com,2013-02-11 05:10:00,
2013-02-11 00:25:00,48.7,46.2,30.10,East,90,2.2,-999.0,91,-99.99,,,0.00,Acu-Link.com,2013-02-11 05:25:00,
2013-02-11 00:40:00,48.9,46.4,30.11,East,90,1.7,-999.0,91,-99.99,,,0.00,Acu-Link.com,2013-02-11 05:40:00,
2013-02-11 00:55:00,49.1,46.6,30.09,NE,45,0.0,-999.0,91,-99.99,,,0.00,Acu-Link.com,2013-02-11 05:55:00,
2013-02-11 01:10:00,49.5,47.3,30.09,NE,45,1.7,-999.0,92,-99.99,,,0.00,Acu-Link.com,2013-02-11 06:10:00,
2013-02-11 01:25:00,49.5,47.3,30.08,ENE,67,0.0,-999.0,92,-99.99,,,0.00,Acu-Link.com,2013-02-11 06:25:00,
2013-02-11 01:46:00,49.6,47.4,30.06,SE,135,0.0,-999.0,92,-99.99,,,0.00,Acu-Link.com,2013-02-11 06:46:00,
2013-02-11 02:01:00,56.8,51.7,30.02,SW,225,3.7,-999.0,83,-99.99,,,0.00,Acu-Link.com,2013-02-11 07:01:00,
2013-02-11 02:17:00,57.2,52.1,30.02,WSW,247,5.8,-999.0,83,-99.99,,,0.00,Acu-Link.com,2013-02-11 07:17:00,
2013-02-11 02:33:00,57.0,51.9,30.01,SSE,157,2.7,-999.0,83,-99.99,,,0.00,Acu-Link.com,2013-02-11 07:33:00,
2013-02-11 02:50:00,57.2,52.1,30.00,SSW,202,3.7,-999.0,83,-99.99,,,0.00,Acu-Link.com,2013-02-11 07:50:00,
2013-02-11 03:26:00,57.6,52.5,29.97,SW,225,6.8,-999.0,83,-99.99,,,0.01,Acu-Link.com,2013-02-11 08:26:00,
2013-02-11 03:44:00,58.3,52.8,29.97,SW,225,2.7,-999.0,82,-99.99,,,0.01,Acu-Link.com,2013-02-11 08:44:00,
2013-02-11 04:01:00,58.3,52.8,29.96,WSW,247,6.3,-999.0,82,-99.99,,,0.01,Acu-Link.com,2013-02-11 09:01:00,
2013-02-11 04:17:00,58.3,52.8,29.96,WSW,247,3.7,-999.0,82,-99.99,,,0.01,Acu-Link.com,2013-02-11 09:17:00,
2013-02-11 04:37:00,58.3,52.8,29.96,WSW,247,5.3,-999.0,82,-99.99,,,0.01,Acu-Link.com,2013-02-11 09:37:00,
2013-02-11 04:52:00,58.8,52.6,29.95,WSW,247,8.3,-999.0,80,-99.99,,,0.01,Acu-Link.com,2013-02-11 09:52:00,
2013-02-11 05:08:00,58.6,52.8,29.95,WSW,247,3.2,-999.0,81,-99.99,,,0.01,Acu-Link.com,2013-02-11 10:08:00,
2013-02-11 06:21:00,58.3,54.4,29.94,WNW,292,3.2,-999.0,87,-99.99,,,0.01,Acu-Link.com,2013-02-11 11:21:00,
2013-02-11 11:26:00,60.8,57.2,29.90,SSW,202,9.4,-999.0,88,-99.99,,,0.02,Acu-Link.com,2013-02-11 16:26:00,
2013-02-11 11:48:00,60.3,57.7,29.90,SSW,202,6.8,-999.0,91,-99.99,,,0.02,Acu-Link.com,2013-02-11 16:48:00,
2013-02-11 12:03:00,59.0,57.6,29.89,SSW,202,7.8,-999.0,95,-99.99,,,0.08,Acu-Link.com,2013-02-11 17:03:00,
2013-02-11 12:19:00,59.5,58.1,29.88,SSW,202,4.7,-999.0,95,-99.99,,,0.13,Acu-Link.com,2013-02-11 17:19:00,
2013-02-11 12:34:00,59.4,58.0,29.87,SSW,202,10.4,-999.0,95,-99.99,,,0.16,Acu-Link.com,2013-02-11 17:34:00,
2013-02-11 12:49:00,59.4,58.0,29.86,WSW,247,5.3,-999.0,95,-99.99,,,0.16,Acu-Link.com,2013-02-11 17:49:00,
2013-02-11 13:04:00,58.8,57.7,29.85,South,180,4.2,-999.0,96,-99.99,,,0.16,Acu-Link.com,2013-02-11 18:04:00,
2013-02-11 13:19:00,59.0,57.9,29.83,SSW,202,7.3,-999.0,96,-99.99,,,0.16,Acu-Link.com,2013-02-11 18:19:00,
2013-02-11 13:34:00,59.5,58.1,29.82,SSW,202,10.9,-999.0,95,-99.99,,,0.16,Acu-Link.com,2013-02-11 18:34:00,
2013-02-11 13:49:00,59.4,58.0,29.81,South,180,12.5,-999.0,95,-99.99,,,0.16,Acu-Link.com,2013-02-11 18:49:00,
2013-02-11 14:04:00,59.7,58.3,29.80,WSW,247,8.3,-999.0,95,-99.99,,,0.17,Acu-Link.com,2013-02-11 19:04:00,
2013-02-11 14:19:00,59.7,58.3,29.78,SW,225,7.3,-999.0,95,-99.99,,,0.19,Acu-Link.com,2013-02-11 19:19:00,
2013-02-11 14:35:00,60.3,58.9,29.78,SW,225,10.9,-999.0,95,-99.99,,,0.20,Acu-Link.com,2013-02-11 19:35:00,
2013-02-11 14:50:00,61.0,59.3,29.80,SSW,202,10.4,-999.0,94,-99.99,,,0.20,Acu-Link.com,2013-02-11 19:50:00,
2013-02-11 15:05:00,60.8,59.1,29.81,SSW,202,7.8,-999.0,94,-99.99,,,0.20,Acu-Link.com,2013-02-11 20:05:00,
2013-02-11 15:21:00,59.9,58.5,29.81,SW,225,4.7,-999.0,95,-99.99,,,0.20,Acu-Link.com,2013-02-11 20:21:00,
2013-02-11 15:36:00,59.0,57.9,29.81,SSW,202,4.2,-999.0,96,-99.99,,,0.20,Acu-Link.com,2013-02-11 20:36:00,
2013-02-11 15:51:00,59.4,58.5,29.81,SW,225,6.8,-999.0,97,-99.99,,,0.20,Acu-Link.com,2013-02-11 20:51:00,
2013-02-11 16:06:00,58.6,57.8,29.80,SW,225,6.3,-999.0,97,-99.99,,,0.20,Acu-Link.com,2013-02-11 21:06:00,
2013-02-11 16:23:00,58.8,57.7,29.80,SW,225,7.3,-999.0,96,-99.99,,,0.20,Acu-Link.com,2013-02-11 21:23:00,
2013-02-11 16:38:00,58.8,57.7,29.80,SSW,202,8.9,-999.0,96,-99.99,,,0.20,Acu-Link.com,2013-02-11 21:38:00,
2013-02-11 16:57:00,59.0,57.0,29.80,SSW,202,8.9,-999.0,93,-99.99,,,0.20,Acu-Link.com,2013-02-11 21:57:00,
2013-02-11 17:26:00,58.5,56.5,29.78,SW,225,7.8,-999.0,93,-99.99,,,0.20,Acu-Link.com,2013-02-11 22:26:00,
2013-02-11 17:53:00,58.8,56.8,29.78,SSW,202,9.9,-999.0,93,-99.99,,,0.20,Acu-Link.com,2013-02-11 22:53:00,
2013-02-11 19:33:00,58.8,56.8,29.78,SSW,202,9.4,-999.0,93,-99.99,,,0.20,Acu-Link.com,2013-02-12 00:33:00,
2013-02-11 21:00:00,58.8,57.1,29.74,SSW,202,8.9,-999.0,94,-99.99,,,0.20,Acu-Link.com,2013-02-12 02:00:00,
2013-02-11 21:17:00,59.7,57.7,29.74,West,270,10.9,-999.0,93,-99.99,,,0.20,Acu-Link.com,2013-02-12 02:17:00,
2013-02-11 21:33:00,59.7,57.4,29.73,SW,225,7.8,-999.0,92,-99.99,,,0.20,Acu-Link.com,2013-02-12 02:33:00,
2013-02-11 21:53:00,59.4,57.1,29.76,SW,225,9.4,-999.0,92,-99.99,,,0.20,Acu-Link.com,2013-02-12 02:53:00,
2013-02-11 22:08:00,59.4,57.1,29.75,SSW,202,7.3,-999.0,92,-99.99,,,0.20,Acu-Link.com,2013-02-12 03:08:00,